Jasná obloha bez mraků
Jasno s ojedinělými nízkými oblaky
Jasno s ojedinělými nízkými oblaky
Jasno s ojedinělými nízkými oblaky
Jasno s ojedinělými nízkými oblaky
Jasno s ojedinělými nízkými oblaky
Jasno s ojedinělými nízkými oblaky
(°C)
(°C)
ZJZ
J
V
V
SV
SSV
SSV
(km/h)
2-7
1-8
2-7
3-8
4-8
4-9
4-9
(mm)
0
0
0
0
0
0
0
(%)
7
7
6
0
0
0
0

Sluneční výška

/ -14.8°
sun-icon
UV 2
07:46
17:52
První čtvrť (89°)
11:35
00:34

METAR pro Ioánnina (LGIO)

Čas Podmínky Teplota/
Rosný bod
Vítr Viditelnost Počasí Oblaky Tlak Změna Nezpracované
VFR 5°C / 3°C variable 2kt >10km - Few Clouds 3000ft 1013 - LGIO 281650Z VRB02KT 9999 FEW030 05/03 Q1013
VFR 5°C / 4°C variable 2kt >10km - Scattered Clouds 3000ft 1012 - LGIO 281620Z VRB02KT 9999 SCT030 05/04 Q1012
VFR 6°C / 4°C variable 0kt >10km - Scattered Clouds 3000ft 1012 - LGIO 281550Z 00000KT 9999 SCT030 06/04 Q1012
6°C / 4°C variable 2kt - 1012 - LGIO 281520Z AUTO VRB02KT //// // ////// 06/04 Q1012 RE//
7°C / 4°C variable 3kt - 1012 - LGIO 281450Z AUTO VRB03KT //// // ////// 07/04 Q1012 RE//
8°C / 4°C variable 3kt - 1012 - LGIO 281420Z AUTO VRB03KT //// // ////// 08/04 Q1012 RE//
7°C / 4°C variable 2kt - 1011 - LGIO 281350Z AUTO VRB02KT //// // ////// 07/04 Q1011 RE//
8°C / 3°C variable 2kt - 1011 - LGIO 281320Z AUTO VRB02KT //// // ////// 08/03 Q1011 RE//
9°C / 2°C variable 2kt - 1011 - LGIO 281250Z AUTO VRB02KT //// // ////// 09/02 Q1011 RE//
8°C / 4°C variable 2kt - 1011 - LGIO 281220Z AUTO VRB02KT //// // ////// 08/04 Q1011 RE//
8°C / 4°C variable 2kt - 1011 - LGIO 281150Z AUTO VRB02KT //// // ////// 08/04 Q1011 RE//
6°C / 3°C variable 2kt - 1012 - LGIO 281120Z AUTO VRB02KT //// // ////// 06/03 Q1012 RE//
MVFR 6°C / 4°C variable 2kt 5000m Mist Vertical Visibility of 0ft.
Scattered Clouds 2500ft
1012 - LGIO 281050Z VRB02KT 5000 BR SCT004 SCT025 06/04 Q1012
LIFR 5°C / 4°C variable 2kt 3000m Mist Vertical Visibility of 0ft.
Scattered Clouds 2000ft
1012 - LGIO 281020Z VRB02KT 3000 BR BKN004 SCT020 05/04 Q1012
IFR 3°C / 3°C variable 2kt 2000m Mist Vertical Visibility of 0ft. 1012 - LGIO 280950Z VRB02KT 2000 BR BKN006 03/03 Q1012
LIFR 2°C / 2°C variable 3kt 1000m Mist Vertical Visibility of 0ft. 1012 - LGIO 280920Z VRB03KT 1000 BR OVC004 02/02 Q1012
LIFR 2°C / 2°C variable 0kt 600m Fog Vertical Visibility of 0ft. 1012 - LGIO 280850Z 00000KT 0600 FG VV003 02/02 Q1012
LIFR 2°C / 2°C variable 2kt 400m Fog Vertical Visibility of 0ft. 1012 - LGIO 280820Z VRB02KT 0400 FG VV002 02/02 Q1012
LIFR 2°C / 2°C variable 0kt 400m Fog Vertical Visibility of 0ft. 1012 - LGIO 280750Z 00000KT 0400 FG VV002 02/02 Q1012
LIFR 2°C / 2°C variable 2kt 400m Fog Vertical Visibility of 0ft. 1011 - LGIO 280720Z VRB02KT 0400 FG VV002 02/02 Q1011
LIFR 1°C / 1°C variable 0kt 190m Fog Vertical Visibility of 0ft. 1011 - LGIO 280650Z 00000KT 0200 FG VV002 01/01 Q1011
LIFR 1°C / 1°C variable 0kt 190m Fog Vertical Visibility of 0ft. 1010 - LGIO 280620Z 00000KT 0200 FG VV002 01/01 Q1010
1°C / 1°C variable 1kt - 1010 - LGIO 280550Z AUTO VRB01KT //// // ////// 01/01 Q1010 RE//
2°C / 2°C variable 1kt - 1010 - LGIO 280520Z AUTO VRB01KT //// // ////// 02/02 Q1010 RE//

VFR

5°C / 3°C

[Víc]
Vítr variable 2kt
Viditelnost >10km
Počasí -
Oblaky Few Clouds 3000ft
Tlak 1013
Změna -
Nezpracované LGIO 281650Z VRB02KT 9999 FEW030 05/03 Q1013

VFR

5°C / 4°C

[Víc]
Vítr variable 2kt
Viditelnost >10km
Počasí -
Oblaky Scattered Clouds 3000ft
Tlak 1012
Změna -
Nezpracované LGIO 281620Z VRB02KT 9999 SCT030 05/04 Q1012

VFR

6°C / 4°C

[Víc]
Vítr variable 0kt
Viditelnost >10km
Počasí -
Oblaky Scattered Clouds 3000ft
Tlak 1012
Změna -
Nezpracované LGIO 281550Z 00000KT 9999 SCT030 06/04 Q1012

6°C / 4°C

[Víc]
Vítr variable 2kt
Viditelnost
Počasí -
Oblaky
Tlak 1012
Změna -
Nezpracované LGIO 281520Z AUTO VRB02KT //// // ////// 06/04 Q1012 RE//

7°C / 4°C

[Víc]
Vítr variable 3kt
Viditelnost
Počasí -
Oblaky
Tlak 1012
Změna -
Nezpracované LGIO 281450Z AUTO VRB03KT //// // ////// 07/04 Q1012 RE//

8°C / 4°C

[Víc]
Vítr variable 3kt
Viditelnost
Počasí -
Oblaky
Tlak 1012
Změna -
Nezpracované LGIO 281420Z AUTO VRB03KT //// // ////// 08/04 Q1012 RE//

7°C / 4°C

[Víc]
Vítr variable 2kt
Viditelnost
Počasí -
Oblaky
Tlak 1011
Změna -
Nezpracované LGIO 281350Z AUTO VRB02KT //// // ////// 07/04 Q1011 RE//

8°C / 3°C

[Víc]
Vítr variable 2kt
Viditelnost
Počasí -
Oblaky
Tlak 1011
Změna -
Nezpracované LGIO 281320Z AUTO VRB02KT //// // ////// 08/03 Q1011 RE//

9°C / 2°C

[Víc]
Vítr variable 2kt
Viditelnost
Počasí -
Oblaky
Tlak 1011
Změna -
Nezpracované LGIO 281250Z AUTO VRB02KT //// // ////// 09/02 Q1011 RE//

8°C / 4°C

[Víc]
Vítr variable 2kt
Viditelnost
Počasí -
Oblaky
Tlak 1011
Změna -
Nezpracované LGIO 281220Z AUTO VRB02KT //// // ////// 08/04 Q1011 RE//

8°C / 4°C

[Víc]
Vítr variable 2kt
Viditelnost
Počasí -
Oblaky
Tlak 1011
Změna -
Nezpracované LGIO 281150Z AUTO VRB02KT //// // ////// 08/04 Q1011 RE//

6°C / 3°C

[Víc]
Vítr variable 2kt
Viditelnost
Počasí -
Oblaky
Tlak 1012
Změna -
Nezpracované LGIO 281120Z AUTO VRB02KT //// // ////// 06/03 Q1012 RE//

MVFR

6°C / 4°C

[Víc]
Vítr variable 2kt
Viditelnost 5000m
Počasí Mist
Oblaky Vertical Visibility of 0ft.
Scattered Clouds 2500ft
Tlak 1012
Změna -
Nezpracované LGIO 281050Z VRB02KT 5000 BR SCT004 SCT025 06/04 Q1012

LIFR

5°C / 4°C

[Víc]
Vítr variable 2kt
Viditelnost 3000m
Počasí Mist
Oblaky Vertical Visibility of 0ft.
Scattered Clouds 2000ft
Tlak 1012
Změna -
Nezpracované LGIO 281020Z VRB02KT 3000 BR BKN004 SCT020 05/04 Q1012

IFR

3°C / 3°C

[Víc]
Vítr variable 2kt
Viditelnost 2000m
Počasí Mist
Oblaky Vertical Visibility of 0ft.
Tlak 1012
Změna -
Nezpracované LGIO 280950Z VRB02KT 2000 BR BKN006 03/03 Q1012

LIFR

2°C / 2°C

[Víc]
Vítr variable 3kt
Viditelnost 1000m
Počasí Mist
Oblaky Vertical Visibility of 0ft.
Tlak 1012
Změna -
Nezpracované LGIO 280920Z VRB03KT 1000 BR OVC004 02/02 Q1012

LIFR

2°C / 2°C

[Víc]
Vítr variable 0kt
Viditelnost 600m
Počasí Fog
Oblaky Vertical Visibility of 0ft.
Tlak 1012
Změna -
Nezpracované LGIO 280850Z 00000KT 0600 FG VV003 02/02 Q1012

LIFR

2°C / 2°C

[Víc]
Vítr variable 2kt
Viditelnost 400m
Počasí Fog
Oblaky Vertical Visibility of 0ft.
Tlak 1012
Změna -
Nezpracované LGIO 280820Z VRB02KT 0400 FG VV002 02/02 Q1012

LIFR

2°C / 2°C

[Víc]
Vítr variable 0kt
Viditelnost 400m
Počasí Fog
Oblaky Vertical Visibility of 0ft.
Tlak 1012
Změna -
Nezpracované LGIO 280750Z 00000KT 0400 FG VV002 02/02 Q1012

LIFR

2°C / 2°C

[Víc]
Vítr variable 2kt
Viditelnost 400m
Počasí Fog
Oblaky Vertical Visibility of 0ft.
Tlak 1011
Změna -
Nezpracované LGIO 280720Z VRB02KT 0400 FG VV002 02/02 Q1011

LIFR

1°C / 1°C

[Víc]
Vítr variable 0kt
Viditelnost 190m
Počasí Fog
Oblaky Vertical Visibility of 0ft.
Tlak 1011
Změna -
Nezpracované LGIO 280650Z 00000KT 0200 FG VV002 01/01 Q1011

LIFR

1°C / 1°C

[Víc]
Vítr variable 0kt
Viditelnost 190m
Počasí Fog
Oblaky Vertical Visibility of 0ft.
Tlak 1010
Změna -
Nezpracované LGIO 280620Z 00000KT 0200 FG VV002 01/01 Q1010

1°C / 1°C

[Víc]
Vítr variable 1kt
Viditelnost
Počasí -
Oblaky
Tlak 1010
Změna -
Nezpracované LGIO 280550Z AUTO VRB01KT //// // ////// 01/01 Q1010 RE//

2°C / 2°C

[Víc]
Vítr variable 1kt
Viditelnost
Počasí -
Oblaky
Tlak 1010
Změna -
Nezpracované LGIO 280520Z AUTO VRB01KT //// // ////// 02/02 Q1010 RE//

TAF pro Ioánnina (LGIO)

From till


From till Wind variable 3kt. Visibility 10km or more. Few Clouds 2000ft.

Nezpracované: TAF LGIO 281400Z 2815/2824 VRB03KT 9999 FEW020

Radar a krátkodobá předpověď srážek pro Ioánnina

Mrholení
Slabé
Střední
Silné
Velmi silné
Kroupy

Značka lokality je umístněna na Ioánnina. Mrholení nebo slabé sněžení může být pro radar neviditelné. Intenzita srážek je barevně označena od světle modré po oranžovou.

Aktuální snímky ze satelitu a srážky pro Ioánnina, Řecko

Značka polohy je umístěna na Ioánnina. [Víc]

Satelitní snímek v reálném čase kombinuje viditelné světlo během dne s infračerveným zářením během noci. V noci není obraz tmavý, protože infračervené záření dokáže detekovat teplotní rozdíly. Nízká oblačnost a mlha se bohužel těžko odlišují od pozemních teplot, a proto mohou být během noci téměř neviditelné. Satelitní snímky z Meteosatu pro Evropu jsou aktualizovány v reálném čase každých 5 minut. Snímky z GOES-16/GOES-17 (Severní a Jižní Amerika) a Himawari (Asie) jsou aktualizovány) každých 10 minut.

Srážky se odhadují z radarů a družic. Odhady srážek ze satelitů jsou v noci méně přesné než ve dne. Oranžové křížky označují místa, kde byl zaznamenán blesk (za Evropa).

Copyright 2023 EUMETSAT / meteoblue. Údaje o blescích poskytuje nowcast.

Zpět nahoru